Temperature
15 15 15 15 15 15 15 15 15 15 15 15 16 16 16 16 16 15 15 15 15 15 15 15 15 15 15 15 15 15 15 15 15 15 15 15 14 14
15 15 15 15 15 15 15 15 14 14 14 15 15 15 15 15 15 15 15 15 15 15 15 15 15 15 15 15 15 15 15 15 15 14 14 14 14 14
15 15 15 15 15 15 14 14 14 14 14 14 14 14 14 15 15 15 15 15 15 14 14 14 14 14 14 15 15 15 14 14 14 14 14 14 14 14
15 15 15 14 14 14 14 14 14 14 14 14 14 14 14 14 14 14 14 14 14 14 14 14 14 14 14 14 14 14 14 14 14 14 14 14 14 14
15 15 15 14 14 14 14 14 14 14 14 14 14 14 14 14 14 14 14 14 14 14 14 14 14 14 14 14 14 14 14 14 14 14 14 14 14 14
15 14 14 14 14 14 14 14 14 14 14 14 14 14 14 14 13 13 13 13 14 14 14 14 14 13 13 14 14 14 14 14 14 14 13 13 13 13
14 14 14 14 14 14 14 14 14 14 14 14 14 13 13 13 13 13 13 13 13 13 13 13 13 13 13 13 13 13 13 13 13 13 13 13 13 13
14 14 14 14 14 14 14 14 14 14 14 14 13 13 13 13 13 13 13 13 13 13 13 13 13 13 13 13 13 13 13 13 13 13 13 13 13 13
14 14 14 14 14 14 14 14 14 14 14 13 13 13 13 13 13 13 13 13 12 12 12 13 12 12 12 12 12 13 13 13 13 13 13 13 12 12
14 14 14 14 14 14 14 14 14 14 13 13 13 13 13 13 13 13 12 12 12 12 12 12 12 12 12 12 12 12 12 12 12 12 12 12 12 12
13 13 14 14 14 14 14 14 14 13 13 13 13 13 13 13 13 13 12 12 12 12 12 12 12 12 12 12 12 12 12 12 12 12 12 12 12 12
13 13 13 13 13 13 13 13 13 13 13 13 13 13 13 12 12 12 12 12 12 11 11 11 11 11 11 11 11 11 11 11 11 11 11 11 11 11
12 12 12 13 13 13 13 13 13 13 13 13 13 12 12 12 12 12 12 12 11 11 11 11 11 11 11 11 11 11 11 11 11 11 11 11 11 11
12 12 12 12 12 12 13 13 13 12 12 12 12 12 12 12 12 11 11 11 11 11 10 11 10 10 10 10 10 10 10 10 10 10 10 10 10 10
11 11 11 11 12 12 12 12 12 12 12 12 12 11 11 11 11 11 11 11 10 10 10 10 10 10 10 10 10 10 10 10 10 10 10 10 10 10
11 11 11 11 11 11 11 11 11 11 11 11 11 11 10 10 10 10 10 10 10 10 10 10 10 10 10 9 9 9 9 9 9 9 9 9 9 9
10 10 10 10 10 10 10 10 10 10 10 10 10 10 10 10 10 10 10 10 10 10 9 9 9 9 9 9 9 8 8 9 9 9 9 9 8 8
10 10 10 10 10 10 10 10 10 10 10 9 10 10 9 9 9 9 9 9 9 9 9 9 9 9 8 8 8 8 8 8 8 8 8 8 7 7
10 10 9 9 9 9 9 9 9 9 9 9 9 9 9 9 9 9 9 8 8 8 8 8 8 8 8 8 7 7 7 7 7 7 7 7 6 6
9 9 9 9 9 9 9 9 8 8 8 8 8 8 8 8 8 8 8 8 8 8 8 8 8 8 8 7 7 6 6 6 7 6 6 6 6 5
9 9 9 8 8 8 8 8 8 8 8 8 7 7 7 7 7 7 7 7 7 7 7 7 7 7 7 7 6 6 6 6 6 6 6 6 5 5
9 9 9 8 8 8 8 8 8 8 8 7 7 7 7 7 7 7 7 7 7 7 7 6 6 6 6 6 6 5 5 5 5 5 5 5 5 4
9 9 9 9 8 8 8 8 8 7 7 7 6 6 6 6 6 6 6 6 6 6 6 6 6 6 6 6 5 5 5 5 4 4 4 4 4 3
Wind_Speed
4 5 4 3 4 4 4 4 5 3 3 4 3 2 4 8 13 15 15 18 19 18 16 15 13 12 10 9 7 6 5 4 3 3 3 3 3 4
4 4 3 3 3 4 4 4 4 5 4 3 3 2 2 3 8 12 14 14 16 17 17 16 15 14 13 11 10 8 7 6 5 4 3 3 3 4
4 4 4 3 3 3 3 3 3 4 4 3 2 2 1 1 2 6 9 10 12 15 17 17 17 16 14 13 12 11 10 8 7 6 6 5 5 5
4 4 3 3 3 2 2 3 3 3 4 3 2 1 1 1 2 2 4 7 9 12 15 17 17 17 16 15 14 13 12 11 10 9 8 7 7 6
2 4 3 4 3 2 2 2 2 2 2 2 1 1 1 0 0 1 1 1 4 7 11 15 16 16 16 15 15 14 14 13 13 12 11 9 9 8
1 3 3 5 4 4 3 2 2 2 2 2 1 0 0 1 1 0 1 1 2 2 4 7 11 14 15 15 15 15 16 15 15 15 14 12 11 10
2 1 2 4 5 4 3 3 3 2 2 2 1 1 1 1 0 0 1 1 1 1 1 1 3 5 8 12 14 15 16 16 16 16 15 14 13 13
2 1 1 2 3 4 5 5 5 4 3 2 1 1 1 1 0 0 0 1 2 1 1 2 1 2 3 6 8 10 12 14 15 15 15 15 14 14
2 2 2 3 3 3 3 4 3 3 4 4 3 2 2 2 1 0 0 1 1 1 0 2 1 2 2 3 4 6 7 8 10 11 12 12 12 13
3 3 3 3 2 3 4 3 2 2 1 2 2 2 2 2 3 2 2 0 1 1 0 1 2 2 2 3 4 4 4 5 6 6 7 8 9 10
4 4 4 3 3 5 5 5 3 2 3 4 4 3 3 4 3 3 2 3 2 2 2 1 2 2 2 3 5 6 5 4 4 4 4 5 6 6
5 5 6 5 6 6 5 5 4 1 2 3 4 5 5 5 4 3 2 2 1 1 2 1 2 2 3 3 3 6 7 7 6 6 6 5 4 3
5 4 4 7 8 8 6 4 3 3 3 4 4 4 4 4 4 3 2 2 2 1 1 1 1 2 2 2 3 4 5 5 6 6 8 7 5 2
5 3 4 9 10 10 7 7 9 7 5 5 5 4 4 3 3 3 5 5 4 2 1 2 1 1 1 2 3 4 3 5 5 4 7 8 7 5
6 8 10 11 10 9 12 12 9 6 5 5 4 3 2 3 3 3 4 6 7 8 7 5 2 1 2 2 2 3 3 4 5 4 4 5 5 5
7 9 12 13 11 10 9 8 6 5 5 4 3 3 3 4 4 3 3 3 4 5 8 10 7 4 3 3 3 3 4 4 5 4 4 5 8 10
5 6 7 7 7 7 6 6 6 6 5 4 4 4 4 4 4 4 3 4 4 3 5 5 8 10 7 5 4 4 4 4 4 5 4 5 6 8
8 6 7 6 7 6 6 6 6 6 5 5 4 4 4 4 4 4 4 4 4 4 4 4 3 3 4 6 8 4 4 4 4 5 4 4 4 6
9 7 6 6 6 6 5 5 5 5 4 5 5 4 4 4 4 4 4 4 4 3 4 4 4 3 3 3 5 11 5 4 4 4 5 4 3 3
6 6 5 5 5 5 5 4 4 5 5 5 5 4 4 4 4 4 4 4 3 3 4 4 4 3 2 2 2 4 10 5 4 4 4 3 2 3
5 5 4 4 4 4 4 4 4 4 4 4 4 4 4 4 4 4 4 5 4 3 4 4 4 3 2 4 4 3 4 10 8 4 3 3 3 4
3 3 3 3 3 4 4 4 4 4 5 4 4 4 4 4 4 4 3 3 3 3 3 3 4 5 4 5 4 3 4 5 8 11 10 6 2 3
2 2 2 2 3 3 3 4 4 3 4 4 4 3 3 3 3 3 3 3 3 3 3 4 4 5 4 4 4 3 4 4 4 5 6 12 9 6
Wind_Direction
208 202 196 194 184 184 177 173 169 199 250 262 263 268 233 214 216 211 213 217 218 219 220 221 223 225 228 231 231 232 232 237 251 271 291 308 318 328
187 180 180 184 183 179 181 181 173 176 216 250 249 259 263 217 214 207 215 221 222 224 226 226 226 226 227 226 226 224 224 226 236 250 263 283 301 316
175 173 178 171 166 172 170 165 171 169 204 254 262 272 261 239 191 205 218 224 229 231 231 231 229 228 228 228 228 227 229 232 239 247 255 265 278 290
162 157 170 158 157 168 164 173 180 180 184 225 267 280 260 240 208 211 220 226 227 236 235 234 231 230 230 230 231 233 236 238 243 247 251 258 267 276
154 160 166 154 163 165 165 176 182 174 172 188 241 283 306 341 97 284 256 253 239 243 238 237 235 233 233 234 236 239 242 244 246 247 249 253 261 269
118 165 170 170 170 162 154 159 147 128 130 144 176 313 327 350 78 342 321 309 282 277 245 235 235 236 238 241 243 246 248 249 249 249 249 251 254 260
72 109 158 168 168 160 152 147 134 123 110 104 93 47 5 19 337 315 289 309 299 308 297 258 230 232 239 245 249 251 252 253 253 252 251 251 252 255
105 105 126 126 129 126 134 140 141 137 140 136 137 159 247 232 205 155 44 11 319 334 342 294 230 246 249 244 256 262 260 259 256 254 252 252 252 253
107 125 118 93 93 101 110 110 96 115 142 152 157 194 206 206 163 136 192 215 256 297 15 306 318 280 273 265 274 280 281 276 269 263 258 257 257 258
84 101 104 90 93 131 123 109 90 63 100 126 153 182 193 182 172 180 192 176 334 346 58 316 334 315 312 319 331 327 312 306 295 280 269 265 263 262
67 76 87 86 92 124 120 115 91 42 60 97 105 97 88 108 121 94 64 61 29 355 8 19 337 328 340 352 8 18 15 6 349 328 309 294 282 276
60 55 58 73 85 103 112 120 117 85 83 81 62 53 53 64 79 90 115 94 76 1 346 33 356 5 11 354 3 18 20 17 14 2 350 336 318 294
66 50 42 65 77 86 96 105 124 124 101 93 74 61 49 45 40 46 72 111 112 31 323 89 29 21 30 349 354 8 22 14 12 10 8 2 353 329
70 49 54 72 73 71 73 79 89 92 87 82 73 59 49 36 30 40 56 64 73 84 44 74 78 49 40 21 357 351 6 14 14 8 12 17 17 10
67 66 69 69 68 63 61 67 69 72 78 78 73 55 33 29 40 47 42 54 53 49 45 45 68 72 74 64 17 352 355 1 11 11 17 29 26 22
62 62 64 63 61 55 51 50 52 62 77 77 68 45 37 44 43 42 44 39 47 23 24 36 41 63 69 57 60 34 19 9 355 5 22 35 40 39
71 59 54 53 54 49 46 46 46 50 56 50 58 57 48 49 38 32 48 51 58 37 16 13 41 63 60 58 56 37 26 19 6 3 30 47 44 40
74 66 60 57 58 53 51 45 42 43 43 51 54 56 55 53 46 37 49 61 62 46 29 10 20 42 52 52 38 36 24 12 1 10 28 48 49 40
72 68 63 58 55 52 51 52 45 33 38 49 52 50 52 52 53 48 47 55 55 43 26 18 31 62 71 55 27 29 27 8 8 18 24 35 46 30
63 66 62 57 54 54 50 49 47 40 40 42 40 40 45 53 56 52 51 59 57 46 33 26 29 42 86 110 74 20 24 28 23 19 9 14 27 7
60 60 57 57 54 55 55 54 53 47 40 41 39 36 39 51 55 53 57 58 60 55 46 14 341 8 99 76 71 27 10 34 47 42 16 23 13 5
70 68 56 54 54 53 54 57 54 46 37 39 36 33 34 48 58 60 62 62 56 60 51 17 16 45 62 80 82 44 9 10 30 47 49 50 60 21
105 94 76 56 53 55 55 58 60 49 38 34 33 28 34 43 45 59 64 64 65 66 62 50 44 52 58 71 77 55 36 19 11 21 17 25 39 34
Height
1521 1522 1523 1524 1526 1527 1529 1530 1532 1532 1532 1533 1534 1534 1536 1537 1538 1539 1541 1542 1543 1543 1543 1543 1544 1544 1544 1544 1544 1544 1543 1543 1542 1541 1541 1540 1539 1538
1519 1520 1521 1522 1523 1524 1525 1527 1528 1529 1529 1529 1530 1531 1532 1533 1534 1535 1537 1538 1539 1540 1541 1541 1541 1541 1541 1541 1541 1541 1541 1541 1540 1539 1538 1538 1537 1536
1518 1519 1519 1520 1521 1522 1523 1524 1524 1525 1526 1527 1528 1528 1529 1529 1530 1531 1532 1533 1535 1536 1537 1538 1538 1538 1539 1539 1539 1539 1539 1538 1538 1537 1537 1536 1535 1534
1517 1518 1518 1519 1520 1520 1521 1521 1522 1522 1523 1524 1524 1525 1525 1526 1527 1528 1528 1529 1531 1532 1533 1534 1534 1535 1535 1536 1536 1536 1536 1536 1536 1535 1534 1534 1533 1532
1516 1517 1518 1518 1519 1519 1519 1520 1520 1520 1521 1521 1522 1522 1523 1523 1524 1524 1525 1525 1526 1527 1528 1529 1530 1531 1531 1532 1532 1533 1533 1533 1533 1532 1532 1531 1530 1530
1516 1517 1517 1518 1518 1519 1519 1519 1519 1519 1520 1520 1520 1521 1521 1521 1521 1521 1522 1522 1522 1523 1523 1524 1525 1526 1527 1527 1528 1529 1529 1529 1529 1529 1529 1528 1528 1527
1516 1516 1517 1517 1518 1518 1518 1518 1518 1519 1519 1519 1520 1520 1519 1519 1519 1519 1519 1519 1519 1520 1520 1520 1521 1521 1522 1523 1523 1524 1524 1525 1525 1525 1525 1525 1524 1524
1515 1516 1517 1518 1518 1518 1518 1519 1519 1519 1519 1520 1519 1519 1519 1518 1518 1518 1517 1517 1517 1518 1517 1517 1517 1517 1517 1518 1518 1519 1519 1520 1520 1521 1521 1521 1520 1520
1515 1516 1517 1517 1518 1518 1519 1519 1519 1519 1520 1520 1520 1519 1518 1518 1518 1517 1516 1516 1516 1516 1516 1515 1515 1514 1514 1514 1514 1515 1515 1515 1516 1516 1516 1516 1516 1516
1514 1515 1516 1517 1518 1518 1519 1519 1519 1519 1520 1520 1519 1519 1518 1518 1517 1517 1516 1516 1515 1515 1514 1514 1514 1513 1513 1512 1512 1512 1512 1512 1512 1512 1512 1512 1511 1511
1513 1514 1515 1516 1517 1517 1518 1518 1519 1519 1519 1519 1519 1519 1518 1518 1517 1517 1516 1515 1515 1515 1514 1514 1513 1513 1512 1511 1511 1510 1510 1510 1510 1509 1509 1508 1508 1507
1513 1513 1514 1515 1516 1516 1517 1518 1518 1519 1519 1519 1519 1519 1518 1518 1517 1517 1516 1516 1515 1515 1514 1514 1513 1513 1512 1512 1511 1510 1509 1509 1509 1508 1507 1506 1505 1504
1513 1513 1514 1514 1515 1516 1517 1517 1518 1518 1518 1519 1519 1519 1518 1518 1517 1517 1516 1516 1515 1515 1515 1514 1513 1513 1512 1512 1511 1510 1509 1508 1507 1507 1505 1504 1503 1502
1513 1514 1514 1515 1515 1516 1516 1517 1517 1518 1518 1518 1518 1518 1518 1518 1517 1517 1516 1516 1515 1515 1514 1514 1513 1513 1512 1512 1511 1510 1509 1508 1507 1506 1505 1503 1502 1501
1514 1515 1515 1516 1516 1516 1517 1517 1518 1518 1518 1518 1518 1518 1518 1518 1518 1517 1517 1516 1515 1515 1514 1514 1513 1513 1512 1511 1511 1510 1509 1508 1507 1505 1504 1502 1501 1499
1516 1517 1517 1517 1517 1517 1518 1518 1518 1518 1518 1518 1518 1518 1518 1518 1518 1517 1517 1516 1516 1515 1515 1514 1513 1513 1512 1511 1511 1510 1509 1508 1507 1505 1503 1501 1500 1498
1519 1519 1519 1519 1519 1519 1519 1519 1519 1519 1519 1519 1519 1519 1519 1518 1518 1518 1517 1517 1516 1516 1515 1514 1514 1513 1512 1512 1511 1510 1509 1508 1506 1505 1503 1501 1499 1497
1521 1520 1520 1520 1520 1520 1520 1520 1520 1520 1520 1520 1520 1519 1519 1519 1518 1518 1518 1517 1516 1516 1515 1515 1514 1513 1513 1512 1513 1511 1510 1508 1506 1505 1503 1501 1499 1497
1522 1522 1522 1522 1521 1521 1521 1521 1520 1520 1520 1520 1520 1520 1520 1519 1519 1518 1518 1517 1517 1516 1516 1515 1514 1514 1513 1512 1513 1512 1510 1508 1506 1504 1502 1501 1499 1497
1524 1523 1523 1523 1523 1522 1522 1521 1521 1521 1521 1520 1520 1520 1520 1519 1519 1519 1518 1518 1517 1517 1516 1515 1515 1514 1514 1514 1513 1512 1510 1509 1507 1505 1503 1501 1499 1498
1526 1525 1525 1524 1524 1523 1522 1522 1521 1521 1521 1520 1520 1520 1520 1520 1520 1519 1519 1518 1518 1517 1517 1516 1515 1515 1514 1514 1513 1512 1511 1509 1507 1506 1504 1502 1500 1498
1527 1526 1526 1525 1524 1524 1523 1522 1522 1521 1521 1520 1520 1520 1520 1520 1520 1520 1519 1519 1518 1518 1517 1517 1516 1516 1515 1514 1513 1512 1511 1510 1508 1506 1504 1502 1500 1498
1529 1528 1527 1526 1525 1524 1524 1523 1522 1521 1521 1521 1520 1520 1520 1520 1520 1520 1519 1519 1519 1518 1518 1517 1517 1516 1515 1515 1514 1513 1512 1510 1509 1507 1505 1503 1501 1500